Location: Kelowna
(49.8880°N, 119.4960°W)
Time: 00:06:20
(UTC-07:00)

TIGRISAT - Pass Details

Date: 25 April 2024
Orbit: 594 x 672 km, 97.7° (Epoch: 21 May)

Event Time Altitude Azimuth Distance (km) Brightness Sun altitude
Rises 03:25:20 0° 121° (ESE) 2,911 ? -18.7°
Reaches altitude 10° 03:28:08 10° 102° (ESE) 1,993 ? -18.4°
Maximum altitude 03:30:59 17° 60° (ENE) 1,549 ? -18.1°
Drops below altitude 10° 03:33:48 10° 19° (NNE) 1,973 ? -17.8°
Sets 03:36:33 0° 360° (N) 2,870 ? -17.5°
